EW9479 Weather Reports


Display with metric or nautical units.
time (UTC)temp
F
wind
direction
speed
MPH
gust
MPH
rain 1hr
in
rain 24hr
in
rain mn
in
humidity
%
barometer
mb
20260504044543 57 194 2.0 5.0 0.00 0.00 0.00 66 1016.9
20260504043044 57 195 2.0 3.0 0.00 0.00 0.00 66 1017.0
20260504041541 58 203 1.0 4.0 0.00 0.00 0.00 65 1017.0
20260504040041 58 193 2.0 4.0 0.00 0.00 0.00 64 1017.2
20260504034543 58 198 2.0 4.0 0.00 0.00 0.00 65 1017.3
20260504033055 58 201 2.0 3.0 0.00 0.00 0.00 65 1017.5
20260504031559 57 206 2.0 2.0 0.00 0.00 0.00 66 1017.7
20260504030059 57 179 0.0 1.0 0.00 0.00 0.00 67 1017.7
20260504024544 57 200 1.0 2.0 0.00 0.00 0.00 68 1017.5
20260504023038 56 212 0.0 0.0 0.00 0.00 0.00 68 1017.4
20260504021545 56 0 0.0 0.0 0.00 0.00 0.00 68 1017.3
20260504020046 56 0 0.0 0.0 0.00 0.00 0.00 68 1017.2
20260504014543 57 0 0.0 0.0 0.00 0.00 0.00 67 1017.1
20260504013041 58 0 0.0 0.0 0.00 0.00 0.00 64 1017.0
20260504011538 60 0 0.0 0.0 0.00 0.00 0.00 60 1017.1
20260504010040 63 0 0.0 0.0 0.00 0.00 0.00 57 1017.0
20260504004540 65 0 0.0 1.0 0.00 0.00 0.00 52 1017.0
20260504003046 68 200 0.0 3.0 0.00 0.00 0.00 48 1016.8
20260504001537 70 182 2.0 5.0 0.00 0.00 0.00 43 1016.9
20260504000047 71 211 4.0 8.0 0.00 0.00 0.00 42 1017.0
20260503234540 71 190 6.0 9.0 0.00 0.00 0.00 41 1017.2
20260503233040 71 195 6.0 10.0 0.00 0.00 0.00 40 1017.3
20260503231538 72 183 6.0 10.0 0.00 0.00 0.00 40 1017.3
20260503230045 72 205 5.0 11.0 0.00 0.00 0.00 39 1017.3
20260503224544 72 220 5.0 10.0 0.00 0.00 0.00 40 1017.5
20260503223041 73 226 6.0 9.0 0.00 0.00 0.00 37 1017.5
20260503221541 72 196 7.0 13.0 0.00 0.00 0.00 40 1017.9
20260503220038 73 207 3.0 8.0 0.00 0.00 0.00 40 1017.9
20260503214538 72 225 3.0 14.0 0.00 0.00 0.00 38 1018.1
20260503213037 73 285 4.0 14.0 0.00 0.00 0.00 38 1018.5
20260503211537 72 215 4.0 12.0 0.00 0.00 0.00 37 1018.7
20260503210040 72 285 5.0 13.0 0.00 0.00 0.00 37 1018.9
20260503204540 72 203 8.0 12.0 0.00 0.00 0.00 36 1019.1
20260503203043 72 276 4.0 10.0 0.00 0.00 0.00 38 1019.2
20260503201539 71 333 6.0 11.0 0.00 0.00 0.00 40 1019.5
20260503200038 71 222 6.0 11.0 0.00 0.00 0.00 38 1019.9
20260503194538 71 281 5.0 14.0 0.00 0.00 0.00 40 1020.1
20260503193042 71 307 2.0 13.0 0.00 0.00 0.00 39 1020.5
20260503191539 70 201 4.0 16.0 0.00 0.00 0.00 41 1020.7
20260503190038 69 230 3.0 14.0 0.00 0.00 0.00 42 1020.9
20260503184556 70 170 4.0 9.0 0.00 0.00 0.00 38 1021.1
20260503183037 69 183 4.0 15.0 0.00 0.00 0.00 43 1021.2
20260503181537 68 276 6.0 11.0 0.00 0.00 0.00 41 1021.5
20260503180039 68 229 3.0 13.0 0.00 0.00 0.00 43 1021.8
20260503174540 68 213 6.0 12.0 0.00 0.00 0.00 44 1022.0
20260503173038 67 197 2.0 12.0 0.00 0.00 0.00 44 1022.4
20260503171602 66 302 1.0 10.0 0.00 0.00 0.00 44 1022.7
20260503081540 42 0 0.0 0.0 0.00 0.00 0.00 89 1021.9